Date String (YYYY-MM-DD hh:mm:ss) UTC,Instrument flags,absolute air pressure of the measurement (hPa),sample flow rate (lpm),inlet stack bypass flow (lpm),air temperature of the measurement (°C),ambient temperature measured by the external sensor (°C),aerosol sample conditioner tube jacket temperature (°C),OPC LED temperature (°C),internal box temperature (°C),relative humidity of the measurement (%),span deviation,mass concentration of particles derived from Lorenz-Mie calculation of OPC scattering (μg/m³),mass concentration of particles derived from Lorenz-Mie calculation of OPC scattering (μg/m³),mass concentration of particles derived from Lorenz-Mie calculation of OPC scattering (μg/m³)
DateTimeUTC,F1_M11,P_M11,Q1_M11,Q2_M11,T1_M11,T2_M11,T3_M11,T4_M11,T5_M11,U1_M11,ZSPAN_M11,X0_M11,X2_M11,X1_M11
2023-08-24 15:00:00,SystemResetWarning,0834.0,5.01,000.00,029.5,024.8,000.0,036.8,029.6,33.5,0002.0,0013.83,0007.76,0007.08
2023-08-24 15:01:00,SystemResetWarning,0834.0,5.00,000.00,029.5,025.2,000.0,037.0,029.7,33.8,0001.9,0014.01,0007.79,0007.10
2023-08-24 15:02:00,SystemResetWarning,0834.0,5.00,000.00,029.5,025.6,000.0,037.1,029.8,33.9,0001.7,0014.31,0007.81,0007.09
2023-08-24 15:03:00,SystemResetWarning,0834.0,4.99,000.00,029.5,026.0,000.0,037.1,029.9,33.5,0001.9,0014.33,0007.85,0007.10
2023-08-24 15:04:00,SystemResetWarning,0834.0,5.00,000.00,029.5,026.3,000.0,037.2,030.0,33.8,0002.2,0014.26,0007.83,0007.12
2023-08-24 15:05:00,SystemResetWarning,0834.0,5.00,000.00,029.5,026.5,000.0,037.3,030.1,34.4,0002.1,0014.67,0007.83,0007.12
2023-08-24 15:06:00,SystemResetWarning,0834.0,4.99,000.00,029.5,026.2,000.0,037.2,030.0,33.5,0001.9,0014.70,0007.88,0007.11
2023-08-24 15:07:00,SystemResetWarning,0834.0,5.00,000.00,029.5,024.9,000.0,037.1,029.7,33.4,0001.8,0014.93,0007.95,0007.12
2023-08-24 15:08:00,SystemResetWarning,0834.0,5.01,000.00,029.4,024.4,000.0,037.1,029.6,34.2,0001.8,0014.98,0007.94,0007.11
2023-08-24 15:09:00,SystemResetWarning,0834.1,5.00,000.00,029.3,024.6,000.0,037.1,029.6,33.8,0001.6,0014.07,0007.91,0007.10
2023-08-24 15:10:00,SystemResetWarning,0834.0,4.99,000.00,029.2,025.0,000.0,037.1,029.6,34.5,0001.4,0013.72,0007.94,0007.10
2023-08-24 15:11:00,SystemResetWarning,0834.0,5.00,000.00,029.1,025.4,000.0,037.2,029.7,34.3,0001.5,0013.80,0007.99,0007.12
2023-08-24 15:12:00,SystemResetWarning,0834.0,4.99,000.00,029.1,025.7,000.0,037.2,029.8,33.6,0001.4,0013.88,0007.98,0007.12
2023-08-24 15:13:00,SystemResetWarning,0834.0,4.99,000.00,029.1,026.1,000.0,037.2,029.9,33.4,0000.9,0013.83,0008.01,0007.14
2023-08-24 15:14:00,SystemResetWarning,0834.0,5.00,000.00,029.1,026.4,000.0,037.3,030.0,34.0,0000.5,0013.91,0008.02,0007.14
2023-08-24 15:15:00,SystemResetWarning,0834.0,5.00,000.00,029.2,026.6,000.0,037.2,030.0,33.9,0000.4,0013.79,0008.08,0007.14
2023-08-24 15:16:00,SystemResetWarning,0834.0,4.98,000.00,029.2,025.7,000.0,037.1,029.9,33.9,0000.5,0013.22,0008.12,0007.15
2023-08-24 15:17:00,SystemResetWarning,0834.0,5.00,000.00,029.1,024.6,000.0,037.0,029.6,34.0,0000.5,0012.86,0008.10,0007.15
2023-08-24 15:18:00,SystemResetWarning,0833.9,5.01,000.00,029.0,024.5,000.0,036.9,029.6,34.2,0000.3,0012.79,0008.06,0007.15
2023-08-24 15:19:00,SystemResetWarning,0833.9,4.99,000.00,028.9,024.8,000.0,037.0,029.6,34.5,0000.2,0012.74,0008.06,0007.15
2023-08-24 15:20:00,SystemResetWarning,0833.9,5.02,000.00,028.9,025.2,000.0,037.0,029.7,34.8,0000.3,0012.81,0008.08,0007.16
2023-08-24 15:21:00,SystemResetWarning,0834.0,4.99,000.00,028.9,025.5,000.0,037.0,029.8,34.3,0000.4,0013.11,0008.11,0007.16
2023-08-24 15:22:00,SystemResetWarning,0833.9,5.00,000.00,029.0,025.9,000.0,037.1,029.9,34.5,0000.2,0013.31,0008.09,0007.14
2023-08-24 15:23:00,SystemResetWarning,0834.0,5.00,000.00,029.0,026.2,000.0,037.1,029.9,34.2,0000.3,0013.36,0008.12,0007.12
2023-08-24 15:24:00,SystemResetWarning,0834.0,4.99,000.00,029.0,026.4,000.0,037.1,030.0,33.9,0000.8,0013.20,0008.12,0007.11
2023-08-24 15:25:00,SystemResetWarning,0833.9,4.98,000.00,029.0,025.6,000.0,037.0,029.8,33.5,0000.9,0013.13,0008.10,0007.12
2023-08-24 15:26:00,SystemResetWarning,0833.9,5.00,000.00,028.9,024.4,000.0,036.9,029.6,34.1,0001.0,0013.07,0008.05,0007.11
2023-08-24 15:27:00,SystemResetWarning,0833.9,5.01,000.00,028.9,024.3,000.0,036.8,029.5,34.1,0000.8,0013.33,0008.07,0007.11
2023-08-24 15:28:00,SystemResetWarning,0833.9,5.00,000.00,028.8,024.6,000.0,036.9,029.5,33.9,0001.1,0013.54,0008.11,0007.12
2023-08-24 15:29:00,SystemResetWarning,0833.8,5.00,000.00,028.7,025.0,000.0,036.9,029.6,32.9,0001.1,0014.63,0008.13,0007.10
2023-08-24 15:30:00,SystemResetWarning,0833.8,5.01,000.00,028.7,025.4,000.0,036.9,029.7,33.7,0001.3,0014.77,0008.14,0007.09
2023-08-24 15:31:00,SystemResetWarning,0833.8,5.00,000.00,028.7,025.8,000.0,036.9,029.8,34.5,0001.2,0014.84,0008.13,0007.08
2023-08-24 15:32:00,SystemResetWarning,0833.9,5.00,000.00,028.7,026.1,000.0,036.9,029.9,34.4,0001.2,0015.03,0008.11,0007.09
2023-08-24 15:33:00,SystemResetWarning,0833.9,4.99,000.00,028.8,026.4,000.0,037.0,029.9,34.3,0001.5,0015.13,0008.14,0007.08
2023-08-24 15:34:00,SystemResetWarning,0833.9,5.00,000.00,028.8,025.7,000.0,036.9,029.8,33.2,0001.8,0014.89,0008.17,0007.10
2023-08-24 15:35:00,SystemResetWarning,0833.9,4.99,000.00,028.8,024.5,000.0,036.7,029.5,33.7,0001.6,0014.75,0008.15,0007.11
2023-08-24 15:36:00,SystemResetWarning,0833.9,5.00,000.00,028.7,024.3,000.0,036.7,029.4,32.9,0001.7,0014.80,0008.18,0007.12
2023-08-24 15:37:00,SystemResetWarning,0833.8,5.02,000.00,028.6,024.6,000.0,036.7,029.4,32.8,0001.5,0014.97,0008.20,0007.12
2023-08-24 15:38:00,SystemResetWarning,0833.9,5.00,000.00,028.6,025.0,000.0,036.8,029.5,32.5,0001.3,0015.51,0008.24,0007.16
2023-08-24 15:39:00,SystemResetWarning,0833.9,5.00,000.00,028.6,025.4,000.0,036.8,029.6,32.6,0000.9,0015.84,0008.26,0007.18
2023-08-24 15:40:00,SystemResetWarning,0834.0,5.00,000.00,028.6,025.8,000.0,036.8,029.7,32.8,0001.0,0014.76,0008.28,0007.22
2023-08-24 15:41:00,SystemResetWarning,0833.9,5.01,000.00,028.6,026.1,000.0,036.8,029.8,32.3,0001.2,0014.92,0008.35,0007.27
2023-08-24 15:42:00,SystemResetWarning,0834.0,5.00,000.00,028.6,026.4,000.0,036.8,029.9,32.0,0001.1,0015.20,0008.39,0007.29
2023-08-24 15:43:00,SystemResetWarning,0834.0,4.98,000.00,028.6,025.8,000.0,036.7,029.7,32.6,0001.3,0014.89,0008.39,0007.31
2023-08-24 15:44:00,SystemResetWarning,0833.9,5.00,000.00,028.6,024.5,000.0,036.6,029.4,32.2,0001.1,0014.91,0008.41,0007.34
2023-08-24 15:45:00,SystemResetWarning,0834.0,5.01,000.00,028.5,024.3,000.0,036.6,029.4,32.4,0001.1,0015.65,0008.38,0007.33
2023-08-24 15:46:00,SystemResetWarning,0833.9,5.01,000.00,028.4,024.6,000.0,036.6,029.4,32.2,0001.1,0016.52,0008.44,0007.34
2023-08-24 15:47:00,SystemResetWarning,0834.0,5.00,000.00,028.4,025.0,000.0,036.6,029.5,33.0,0001.1,0016.80,0008.44,0007.34
2023-08-24 15:48:00,SystemResetWarning,0833.9,5.00,000.00,028.4,025.4,000.0,036.7,029.6,33.2,0000.9,0017.32,0008.48,0007.35
2023-08-24 15:49:00,SystemResetWarning,0834.0,5.00,000.00,028.4,025.7,000.0,036.7,029.6,33.1,0001.0,0017.27,0008.52,0007.37
2023-08-24 15:50:00,SystemResetWarning,0834.0,5.00,000.00,028.4,026.1,000.0,036.7,029.7,33.2,0001.4,0016.98,0008.51,0007.37
2023-08-24 15:51:00,SystemResetWarning,0834.0,5.00,000.00,028.4,026.1,000.0,036.7,029.7,32.9,0001.5,0017.70,0008.44,0007.35
2023-08-24 15:52:00,SystemResetWarning,0833.9,4.98,000.00,028.4,025.0,000.0,036.5,029.5,32.7,0001.6,0017.72,0008.40,0007.34
2023-08-24 15:53:00,SystemResetWarning,0833.9,5.01,000.00,028.3,024.2,000.0,036.4,029.3,33.0,0001.7,0017.31,0008.37,0007.35
2023-08-24 15:54:00,SystemResetWarning,0833.9,5.01,000.00,028.2,024.3,000.0,036.4,029.3,32.8,0001.8,0017.50,0008.41,0007.37
2023-08-24 15:55:00,SystemResetWarning,0834.0,5.00,000.00,028.2,024.7,000.0,036.4,029.3,33.1,0002.1,0018.37,0008.45,0007.38
2023-08-24 15:56:00,SystemResetWarning,0833.9,5.01,000.00,028.2,025.1,000.0,036.5,029.4,32.7,0001.7,0018.11,0008.51,0007.42
2023-08-24 15:57:00,SystemResetWarning,0833.9,5.00,000.00,028.2,025.5,000.0,036.5,029.5,32.1,0001.5,0017.70,0008.56,0007.45
2023-08-24 15:58:00,SystemResetWarning,0834.0,4.99,000.00,028.2,025.9,000.0,036.5,029.6,32.2,0001.5,0017.65,0008.58,0007.48
2023-08-24 15:59:00,SystemResetWarning,0834.0,5.00,000.00,028.2,026.2,000.0,036.5,029.7,32.2,0001.4,0017.16,0008.58,0007.49
